Time,TemperatureF,DewpointF,PressureIn,WindDirection,WindDirectionDegrees,WindSpeedMPH,WindSpeedGustMPH,Humidity,HourlyPrecipIn,Conditions,Clouds,dailyrainin,SoftwareType,DateUTC
2013-01-14 00:02:00,43.6,13.4,30.26,NW,322,8.1,8.1,29,0.00,CLR,,0.00,WeatherDisplay:10.37,2013-01-14 08:02:00,
2013-01-14 00:07:00,43.4,13.2,30.26,NW,312,10.4,10.4,29,0.00,CLR,,0.00,WeatherDisplay:10.37,2013-01-14 08:07:00,
2013-01-14 00:13:00,43.1,14.5,30.26,NNW,345,8.1,8.1,31,0.00,CLR,,0.00,WeatherDisplay:10.37,2013-01-14 08:13:00,
2013-01-14 00:18:00,43.3,13.1,30.26,NNW,334,11.5,11.5,29,0.00,CLR,,0.00,WeatherDisplay:10.37,2013-01-14 08:18:00,
2013-01-14 00:23:00,43.2,13.0,30.26,NNW,338,12.7,12.7,29,0.00,CLR,,0.00,WeatherDisplay:10.37,2013-01-14 08:23:00,
2013-01-14 00:29:00,43.1,12.9,30.27,NNW,345,11.5,11.5,29,0.00,CLR,,0.00,WeatherDisplay:10.37,2013-01-14 08:29:00,
2013-01-14 00:34:00,43.1,12.9,30.27,NNW,342,15.0,15.0,29,0.00,CLR,,0.00,WeatherDisplay:10.37,2013-01-14 08:34:00,
2013-01-14 00:39:00,43.2,13.8,30.27,North,354,11.0,11.0,30,0.00,CLR,,0.00,WeatherDisplay:10.37,2013-01-14 08:39:00,
2013-01-14 00:44:00,43.2,13.8,30.27,NNW,347,11.5,11.5,30,0.00,CLR,,0.00,WeatherDisplay:10.37,2013-01-14 08:44:00,
2013-01-14 00:50:00,42.9,13.5,30.27,NW,326,11.5,11.5,30,0.00,CLR,,0.00,WeatherDisplay:10.37,2013-01-14 08:50:00,
2013-01-14 00:55:00,42.9,14.3,30.28,NNW,334,11.5,11.5,31,0.00,CLR,,0.00,WeatherDisplay:10.37,2013-01-14 08:55:00,
2013-01-14 01:00:00,42.0,15.6,30.28,NNW,340,10.4,10.4,34,0.00,CLR,,0.00,WeatherDisplay:10.37,2013-01-14 09:00:00,
2013-01-14 01:06:00,41.8,15.4,30.28,NNW,342,11.5,11.5,34,0.00,CLR,,0.00,WeatherDisplay:10.37,2013-01-14 09:06:00,
2013-01-14 01:11:00,41.4,15.1,30.28,NNW,336,11.5,11.5,34,0.00,CLR,,0.00,WeatherDisplay:10.37,2013-01-14 09:11:00,
2013-01-14 01:16:00,41.1,15.5,30.27,NW,323,9.2,9.2,35,0.00,CLR,,0.00,WeatherDisplay:10.37,2013-01-14 09:16:00,
2013-01-14 01:21:00,41.3,15.7,30.27,North,354,11.5,11.5,35,0.00,CLR,,0.00,WeatherDisplay:10.37,2013-01-14 09:21:00,
2013-01-14 01:27:00,41.4,15.1,30.27,NNW,348,15.0,15.0,34,0.00,CLR,,0.00,WeatherDisplay:10.37,2013-01-14 09:27:00,
2013-01-14 01:32:00,41.6,15.3,30.27,North,11,11.5,11.5,34,0.00,CLR,,0.00,WeatherDisplay:10.37,2013-01-14 09:32:00,
2013-01-14 01:37:00,41.4,15.1,30.27,NW,316,15.0,15.0,34,0.00,CLR,,0.00,WeatherDisplay:10.37,2013-01-14 09:37:00,
2013-01-14 01:42:00,41.5,15.8,30.27,NNW,347,12.7,12.7,35,0.00,CLR,,0.00,WeatherDisplay:10.37,2013-01-14 09:42:00,
2013-01-14 01:47:00,41.2,15.6,30.28,North,357,13.8,13.8,35,0.00,CLR,,0.00,WeatherDisplay:10.37,2013-01-14 09:47:00,
2013-01-14 01:52:00,41.4,15.1,30.28,NW,322,15.0,15.0,34,0.00,CLR,,0.00,WeatherDisplay:10.37,2013-01-14 09:52:00,
2013-01-14 01:57:00,41.5,15.8,30.28,NNW,334,13.8,13.8,35,0.00,CLR,,0.00,WeatherDisplay:10.37,2013-01-14 09:57:00,
2013-01-14 02:02:00,41.8,15.4,30.28,WNW,293,13.8,13.8,34,0.00,CLR,,0.00,WeatherDisplay:10.37,2013-01-14 10:02:00,
2013-01-14 02:08:00,41.9,15.5,30.28,NNW,329,11.5,11.5,34,0.00,CLR,,0.00,WeatherDisplay:10.37,2013-01-14 10:08:00,
2013-01-14 02:13:00,41.6,15.3,30.28,North,359,13.0,13.0,34,0.00,CLR,,0.00,WeatherDisplay:10.37,2013-01-14 10:13:00,
2013-01-14 02:18:00,41.6,14.6,30.29,NNW,342,12.7,12.7,33,0.00,CLR,,0.00,WeatherDisplay:10.37,2013-01-14 10:18:00,
2013-01-14 02:23:00,41.7,14.7,30.28,NNW,340,11.5,11.5,33,0.00,CLR,,0.00,WeatherDisplay:10.37,2013-01-14 10:23:00,
2013-01-14 02:28:00,41.6,15.3,30.28,North,353,11.5,11.5,34,0.00,CLR,,0.00,WeatherDisplay:10.37,2013-01-14 10:28:00,
2013-01-14 02:34:00,41.4,15.1,30.28,North,8,13.8,13.8,34,0.00,CLR,,0.00,WeatherDisplay:10.37,2013-01-14 10:34:00,
2013-01-14 02:39:00,41.3,15.0,30.28,NNE,23,13.8,13.8,34,0.00,CLR,,0.00,WeatherDisplay:10.37,2013-01-14 10:39:00,
2013-01-14 02:44:00,40.9,16.0,30.28,NNE,32,11.5,11.5,36,0.00,CLR,,0.00,WeatherDisplay:10.37,2013-01-14 10:44:00,
2013-01-14 02:49:00,40.9,15.3,30.28,NNW,336,16.1,16.1,35,0.00,CLR,,0.00,WeatherDisplay:10.37,2013-01-14 10:49:00,
2013-01-14 02:55:00,40.8,15.9,30.28,North,8,10.4,10.4,36,0.00,CLR,,0.00,WeatherDisplay:10.37,2013-01-14 10:55:00,
2013-01-14 03:00:00,40.1,16.5,30.28,NW,323,10.4,10.4,38,0.00,CLR,,0.00,WeatherDisplay:10.37,2013-01-14 11:00:00,
2013-01-14 03:05:00,40.3,16.1,30.29,NNW,336,11.5,11.5,37,0.00,CLR,,0.00,WeatherDisplay:10.37,2013-01-14 11:05:00,
2013-01-14 03:10:00,40.7,15.8,30.29,NNW,338,15.0,15.0,36,0.00,CLR,,0.00,WeatherDisplay:10.37,2013-01-14 11:10:00,
2013-01-14 03:15:00,41.1,14.1,30.28,North,6,11.5,11.5,33,0.00,CLR,,0.00,WeatherDisplay:10.37,2013-01-14 11:15:00,
2013-01-14 03:20:00,41.6,14.6,30.29,NNW,333,15.0,15.0,33,0.00,CLR,,0.00,WeatherDisplay:10.37,2013-01-14 11:20:00,
2013-01-14 03:25:00,42.2,13.7,30.29,North,354,11.5,11.5,31,0.00,CLR,,0.00,WeatherDisplay:10.37,2013-01-14 11:25:00,
2013-01-14 03:30:00,42.3,15.2,30.29,NNW,330,11.5,11.5,33,0.00,CLR,,0.00,WeatherDisplay:10.37,2013-01-14 11:30:00,
2013-01-14 03:35:00,42.7,13.4,30.28,WNW,303,16.1,16.1,30,0.00,CLR,,0.00,WeatherDisplay:10.37,2013-01-14 11:35:00,
2013-01-14 03:40:00,43.2,13.0,30.28,NW,326,15.0,15.0,29,0.00,CLR,,0.00,WeatherDisplay:10.37,2013-01-14 11:40:00,
2013-01-14 03:45:00,43.4,13.2,30.28,South,179,17.3,17.3,29,0.00,CLR,,0.00,WeatherDisplay:10.37,2013-01-14 11:45:00,
2013-01-14 03:50:00,43.5,12.5,30.28,WNW,300,12.7,12.7,28,0.00,CLR,,0.00,WeatherDisplay:10.37,2013-01-14 11:50:00,
2013-01-14 03:55:00,43.6,12.6,30.28,NNW,339,18.4,18.4,28,0.00,CLR,,0.00,WeatherDisplay:10.37,2013-01-14 11:55:00,
2013-01-14 04:00:00,43.6,12.6,30.28,NNW,347,15.0,15.0,28,0.00,CLR,,0.00,WeatherDisplay:10.37,2013-01-14 12:00:00,
2013-01-14 04:06:00,43.5,13.3,30.28,NNW,338,12.7,12.7,29,0.00,CLR,,0.00,WeatherDisplay:10.37,2013-01-14 12:06:00,
2013-01-14 04:11:00,43.3,13.1,30.28,NNW,334,11.5,11.5,29,0.00,CLR,,0.00,WeatherDisplay:10.37,2013-01-14 12:11:00,
2013-01-14 04:16:00,43.1,14.5,30.29,NNW,342,13.8,13.8,31,0.00,CLR,,0.00,WeatherDisplay:10.37,2013-01-14 12:16:00,
2013-01-14 04:22:00,43.1,12.9,30.29,NNW,329,10.4,10.4,29,0.00,CLR,,0.00,WeatherDisplay:10.37,2013-01-14 12:22:00,
2013-01-14 04:27:00,43.5,12.5,30.29,NW,314,11.5,11.5,28,0.00,CLR,,0.00,WeatherDisplay:10.37,2013-01-14 12:27:00,
2013-01-14 04:32:00,43.1,14.5,30.29,NNW,344,11.5,11.5,31,0.00,CLR,,0.00,WeatherDisplay:10.37,2013-01-14 12:32:00,
2013-01-14 04:37:00,43.3,11.5,30.29,NNW,334,12.7,12.7,27,0.00,CLR,,0.00,WeatherDisplay:10.37,2013-01-14 12:37:00,
2013-01-14 04:42:00,43.2,12.2,30.29,NNW,345,12.7,12.7,28,0.00,CLR,,0.00,WeatherDisplay:10.37,2013-01-14 12:42:00,
2013-01-14 04:48:00,43.1,14.5,30.30,NNW,342,10.4,10.4,31,0.00,CLR,,0.00,WeatherDisplay:10.37,2013-01-14 12:48:00,
2013-01-14 04:53:00,42.9,13.5,30.30,North,359,16.1,16.1,30,0.00,CLR,,0.00,WeatherDisplay:10.37,2013-01-14 12:53:00,
2013-01-14 04:58:00,43.5,12.5,30.30,NW,325,15.0,15.0,28,0.00,CLR,,0.00,WeatherDisplay:10.37,2013-01-14 12:58:00,
2013-01-14 05:04:00,43.3,12.3,30.29,NW,308,13.8,13.8,28,0.00,CLR,,0.00,WeatherDisplay:10.37,2013-01-14 13:04:00,
2013-01-14 05:09:00,43.2,13.8,30.29,NW,322,8.1,8.1,30,0.00,CLR,,0.00,WeatherDisplay:10.37,2013-01-14 13:09:00,
2013-01-14 05:14:00,43.0,12.9,30.29,NNW,329,15.0,15.0,29,0.00,CLR,,0.00,WeatherDisplay:10.37,2013-01-14 13:14:00,
2013-01-14 05:19:00,43.1,13.7,30.29,NNW,334,12.7,12.7,30,0.00,CLR,,0.00,WeatherDisplay:10.37,2013-01-14 13:19:00,
2013-01-14 05:24:00,43.1,12.9,30.30,North,4,15.0,15.0,29,0.00,CLR,,0.00,WeatherDisplay:10.37,2013-01-14 13:24:00,
2013-01-14 05:30:00,43.1,13.7,30.30,North,360,11.0,11.0,30,0.00,CLR,,0.00,WeatherDisplay:10.37,2013-01-14 13:30:00,
2013-01-14 05:35:00,41.9,14.8,30.30,NNW,347,6.9,6.9,33,0.00,CLR,,0.00,WeatherDisplay:10.37,2013-01-14 13:35:00,
2013-01-14 05:40:00,41.0,14.7,30.31,NNW,339,6.9,6.9,34,0.00,CLR,,0.00,WeatherDisplay:10.37,2013-01-14 13:40:00,
2013-01-14 05:45:00,40.7,14.5,30.31,North,5,6.0,6.0,34,0.00,CLR,,0.00,WeatherDisplay:10.37,2013-01-14 13:45:00,
2013-01-14 05:51:00,41.0,13.4,30.32,NNW,344,9.2,9.2,32,0.00,CLR,,0.00,WeatherDisplay:10.37,2013-01-14 13:51:00,
2013-01-14 05:56:00,41.1,14.8,30.32,NNW,343,8.1,8.1,34,0.00,CLR,,0.00,WeatherDisplay:10.37,2013-01-14 13:56:00,
2013-01-14 06:01:00,41.6,13.9,30.32,North,9,8.1,8.1,32,0.00,CLR,,0.00,WeatherDisplay:10.37,2013-01-14 14:01:00,
2013-01-14 06:06:00,41.5,14.5,30.33,NW,316,8.1,8.1,33,0.00,CLR,,0.00,WeatherDisplay:10.37,2013-01-14 14:06:00,
2013-01-14 06:11:00,41.9,14.1,30.33,NNW,342,12.7,12.7,32,0.00,CLR,,0.00,WeatherDisplay:10.37,2013-01-14 14:11:00,
2013-01-14 06:16:00,41.8,13.3,30.33,North,349,12.7,12.7,31,0.00,CLR,,0.00,WeatherDisplay:10.37,2013-01-14 14:16:00,
2013-01-14 06:22:00,41.5,13.8,30.33,North,352,12.7,12.7,32,0.00,CLR,,0.00,WeatherDisplay:10.37,2013-01-14 14:22:00,
2013-01-14 06:27:00,42.0,13.5,30.34,NNW,347,15.0,15.0,31,0.00,CLR,,0.00,WeatherDisplay:10.37,2013-01-14 14:27:00,
2013-01-14 06:32:00,41.8,12.6,30.34,NW,321,12.7,12.7,30,0.00,CLR,,0.00,WeatherDisplay:10.37,2013-01-14 14:32:00,
2013-01-14 06:37:00,42.6,13.3,30.34,NW,308,11.5,11.5,30,0.00,CLR,,0.00,WeatherDisplay:10.37,2013-01-14 14:37:00,
2013-01-14 06:42:00,42.6,14.0,30.34,NNW,345,11.5,11.5,31,0.00,CLR,,0.00,WeatherDisplay:10.37,2013-01-14 14:42:00,
2013-01-14 06:47:00,43.0,13.6,30.35,North,358,12.0,12.0,30,0.00,CLR,,0.00,WeatherDisplay:10.37,2013-01-14 14:47:00,
2013-01-14 06:52:00,43.0,12.1,30.35,NW,310,18.4,18.4,28,0.00,CLR,,0.00,WeatherDisplay:10.37,2013-01-14 14:52:00,
2013-01-14 06:57:00,42.8,13.5,30.35,North,356,11.5,11.5,30,0.00,CLR,,0.00,WeatherDisplay:10.37,2013-01-14 14:57:00,
2013-01-14 07:02:00,42.8,12.7,30.35,NNW,342,16.1,16.1,29,0.00,CLR,,0.00,WeatherDisplay:10.37,2013-01-14 15:02:00,
2013-01-14 07:08:00,42.8,12.7,30.35,North,11,15.0,15.0,29,0.00,CLR,,0.00,WeatherDisplay:10.37,2013-01-14 15:08:00,
2013-01-14 07:13:00,43.0,12.1,30.36,North,5,13.8,13.8,28,0.00,CLR,,0.00,WeatherDisplay:10.37,2013-01-14 15:13:00,
2013-01-14 07:18:00,43.2,12.2,30.35,NNE,29,13.8,13.8,28,0.00,CLR,,0.00,WeatherDisplay:10.37,2013-01-14 15:18:00,
2013-01-14 07:23:00,43.0,12.9,30.35,NNE,17,13.8,13.8,29,0.00,CLR,,0.00,WeatherDisplay:10.37,2013-01-14 15:23:00,
2013-01-14 07:28:00,42.7,13.4,30.35,NNW,345,12.7,12.7,30,0.00,CLR,,0.00,WeatherDisplay:10.37,2013-01-14 15:28:00,
2013-01-14 07:34:00,42.9,12.8,30.36,North,360,11.5,11.5,29,0.00,CLR,,0.00,WeatherDisplay:10.37,2013-01-14 15:34:00,
2013-01-14 07:39:00,42.8,12.7,30.36,North,9,12.7,12.7,29,0.00,CLR,,0.00,WeatherDisplay:10.37,2013-01-14 15:39:00,
2013-01-14 07:44:00,42.7,14.1,30.37,NW,323,9.2,9.2,31,0.00,CLR,,0.00,WeatherDisplay:10.37,2013-01-14 15:44:00,
2013-01-14 07:49:00,42.5,13.9,30.36,NNW,345,10.4,10.4,31,0.00,CLR,,0.00,WeatherDisplay:10.37,2013-01-14 15:49:00,
2013-01-14 07:54:00,42.4,13.9,30.36,North,11,10.4,10.4,31,0.00,CLR,,0.00,WeatherDisplay:10.37,2013-01-14 15:54:00,
2013-01-14 07:59:00,42.9,12.8,30.36,NNE,27,11.5,11.5,29,0.00,CLR,,0.00,WeatherDisplay:10.37,2013-01-14 15:59:00,
2013-01-14 08:04:00,43.3,12.3,30.37,NE,34,11.5,11.5,28,0.00,CLR,,0.00,WeatherDisplay:10.37,2013-01-14 16:04:00,
2013-01-14 08:09:00,43.4,14.0,30.37,North,351,4.6,4.6,30,0.00,CLR,,0.00,WeatherDisplay:10.37,2013-01-14 16:09:00,
2013-01-14 08:15:00,43.4,14.0,30.37,North,360,9.2,9.2,30,0.00,CLR,,0.00,WeatherDisplay:10.37,2013-01-14 16:15:00,
2013-01-14 08:20:00,43.6,14.2,30.38,NNE,30,10.0,10.0,30,0.00,CLR,,0.00,WeatherDisplay:10.37,2013-01-14 16:20:00,
2013-01-14 08:25:00,43.8,13.6,30.38,NNW,345,10.4,10.4,29,0.00,CLR,,0.00,WeatherDisplay:10.37,2013-01-14 16:25:00,
2013-01-14 08:30:00,44.1,13.8,30.38,NNE,27,10.4,10.4,29,0.00,CLR,,0.00,WeatherDisplay:10.37,2013-01-14 16:30:00,
2013-01-14 08:35:00,44.2,13.9,30.38,North,1,5.8,5.8,29,0.00,CLR,,0.00,WeatherDisplay:10.37,2013-01-14 16:35:00,
2013-01-14 08:41:00,44.4,13.3,30.39,NE,34,3.5,3.5,28,0.00,CLR,,0.00,WeatherDisplay:10.37,2013-01-14 16:41:00,
2013-01-14 08:46:00,44.6,13.5,30.39,NNW,340,4.6,4.6,28,0.00,CLR,,0.00,WeatherDisplay:10.37,2013-01-14 16:46:00,
2013-01-14 08:51:00,44.7,13.5,30.39,NNE,14,6.9,6.9,28,0.00,CLR,,0.00,WeatherDisplay:10.37,2013-01-14 16:51:00,
2013-01-14 08:56:00,44.9,13.7,30.39,NNE,20,7.0,7.0,28,0.00,CLR,,0.00,WeatherDisplay:10.37,2013-01-14 16:56:00,
2013-01-14 09:01:00,45.1,13.9,30.39,NW,321,3.5,3.5,28,0.00,CLR,,0.00,WeatherDisplay:10.37,2013-01-14 17:01:00,
2013-01-14 09:06:00,45.3,14.9,30.39,North,349,3.5,3.5,29,0.00,CLR,,0.00,WeatherDisplay:10.37,2013-01-14 17:06:00,
2013-01-14 09:11:00,45.5,14.2,30.39,NNE,26,10.4,10.4,28,0.00,CLR,,0.00,WeatherDisplay:10.37,2013-01-14 17:11:00,
2013-01-14 09:16:00,45.6,14.3,30.39,NNE,12,6.9,6.9,28,0.00,CLR,,0.00,WeatherDisplay:10.37,2013-01-14 17:16:00,
2013-01-14 09:21:00,45.7,14.4,30.39,NW,310,11.5,11.5,28,0.00,CLR,,0.00,WeatherDisplay:10.37,2013-01-14 17:21:00,
2013-01-14 09:26:00,45.9,13.7,30.39,North,359,12.7,12.7,27,0.00,CLR,,0.00,WeatherDisplay:10.37,2013-01-14 17:26:00,
2013-01-14 09:32:00,46.1,13.9,30.39,NE,34,11.5,11.5,27,0.00,CLR,,0.00,WeatherDisplay:10.37,2013-01-14 17:32:00,
2013-01-14 09:37:00,46.2,13.1,30.39,NNE,17,13.8,13.8,26,0.00,CLR,,0.00,WeatherDisplay:10.37,2013-01-14 17:37:00,
2013-01-14 09:42:00,46.4,14.2,30.40,NE,34,11.5,11.5,27,0.00,CLR,,0.00,WeatherDisplay:10.37,2013-01-14 17:42:00,
2013-01-14 09:47:00,46.7,14.4,30.40,NNE,32,12.7,12.7,27,0.00,CLR,,0.00,WeatherDisplay:10.37,2013-01-14 17:47:00,
2013-01-14 09:52:00,46.8,14.5,30.40,North,356,9.2,9.2,27,0.00,CLR,,0.00,WeatherDisplay:10.37,2013-01-14 17:52:00,
2013-01-14 09:57:00,47.0,12.9,30.40,NNE,25,10.4,10.4,25,0.00,CLR,,0.00,WeatherDisplay:10.37,2013-01-14 17:57:00,
2013-01-14 10:02:00,47.2,14.0,30.40,North,360,8.1,8.1,26,0.00,CLR,,0.00,WeatherDisplay:10.37,2013-01-14 18:02:00,
2013-01-14 10:08:00,47.6,13.5,30.40,NNE,19,6.9,6.9,25,0.00,CLR,,0.00,WeatherDisplay:10.37,2013-01-14 18:08:00,
2013-01-14 10:13:00,47.8,16.2,30.40,North,8,5.0,5.0,28,0.00,CLR,,0.00,WeatherDisplay:10.37,2013-01-14 18:13:00,
2013-01-14 10:18:00,48.3,15.0,30.41,North,358,6.9,6.9,26,0.00,CLR,,0.00,WeatherDisplay:10.37,2013-01-14 18:18:00,
2013-01-14 10:23:00,48.6,14.3,30.41,NNE,27,10.4,10.4,25,0.00,CLR,,0.00,WeatherDisplay:10.37,2013-01-14 18:23:00,
2013-01-14 10:28:00,48.8,13.5,30.41,WNW,300,9.2,9.2,24,0.00,CLR,,0.00,WeatherDisplay:10.37,2013-01-14 18:28:00,
2013-01-14 10:33:00,49.0,13.7,30.41,NNW,345,6.9,6.9,24,0.00,CLR,,0.00,WeatherDisplay:10.37,2013-01-14 18:33:00,
2013-01-14 10:39:00,49.2,11.9,30.41,NW,319,10.4,10.4,22,0.00,CLR,,0.00,WeatherDisplay:10.37,2013-01-14 18:39:00,
2013-01-14 10:44:00,49.3,14.0,30.41,NW,314,9.2,9.2,24,0.00,CLR,,0.00,WeatherDisplay:10.37,2013-01-14 18:44:00,
2013-01-14 10:49:00,49.7,15.2,30.40,NNW,336,5.8,5.8,25,0.00,CLR,,0.00,WeatherDisplay:10.37,2013-01-14 18:49:00,
2013-01-14 10:54:00,49.8,14.4,30.40,NNW,342,10.0,10.0,24,0.00,CLR,,0.00,WeatherDisplay:10.37,2013-01-14 18:54:00,
2013-01-14 10:59:00,49.7,13.3,30.40,NNE,18,10.4,10.4,23,0.00,CLR,,0.00,WeatherDisplay:10.37,2013-01-14 18:59:00,
2013-01-14 11:04:00,50.0,14.6,30.40,NNW,339,8.1,8.1,24,0.00,CLR,,0.00,WeatherDisplay:10.37,2013-01-14 19:04:00,
2013-01-14 11:09:00,50.1,14.7,30.39,North,6,8.1,8.1,24,0.00,CLR,,0.00,WeatherDisplay:10.37,2013-01-14 19:09:00,
2013-01-14 11:15:00,50.2,14.7,30.39,NNW,341,6.9,6.9,24,0.00,CLR,,0.00,WeatherDisplay:10.37,2013-01-14 19:15:00,
2013-01-14 11:20:00,50.4,13.9,30.39,North,351,6.0,6.0,23,0.00,CLR,,0.00,WeatherDisplay:10.37,2013-01-14 19:20:00,
2013-01-14 11:25:00,50.6,16.9,30.39,NNW,330,5.8,5.8,26,0.00,CLR,,0.00,WeatherDisplay:10.37,2013-01-14 19:25:00,
2013-01-14 11:30:00,50.8,16.2,30.38,North,9,11.5,11.5,25,0.00,CLR,,0.00,WeatherDisplay:10.37,2013-01-14 19:30:00,
2013-01-14 11:35:00,51.1,15.5,30.38,NNW,330,9.2,9.2,24,0.00,CLR,,0.00,WeatherDisplay:10.37,2013-01-14 19:35:00,
2013-01-14 11:40:00,51.1,15.5,30.38,North,9,10.0,10.0,24,0.00,CLR,,0.00,WeatherDisplay:10.37,2013-01-14 19:40:00,
2013-01-14 11:45:00,51.4,15.8,30.37,NW,309,7.0,7.0,24,0.00,CLR,,0.00,WeatherDisplay:10.37,2013-01-14 19:45:00,
2013-01-14 11:50:00,51.6,15.9,30.37,NW,310,5.8,5.8,24,0.00,CLR,,0.00,WeatherDisplay:10.37,2013-01-14 19:50:00,
2013-01-14 11:56:00,51.9,16.2,30.37,NNW,345,5.8,5.8,24,0.00,CLR,,0.00,WeatherDisplay:10.37,2013-01-14 19:56:00,
2013-01-14 12:01:00,51.9,17.1,30.36,NNW,347,8.1,8.1,25,0.00,CLR,,0.00,WeatherDisplay:10.37,2013-01-14 20:01:00,
2013-01-14 12:06:00,52.1,16.4,30.36,NW,316,8.1,8.1,24,0.00,CLR,,0.00,WeatherDisplay:10.37,2013-01-14 20:06:00,
2013-01-14 12:11:00,52.2,14.4,30.35,NW,323,7.0,7.0,22,0.00,CLR,,0.00,WeatherDisplay:10.37,2013-01-14 20:11:00,
2013-01-14 12:16:00,52.0,15.3,30.35,NNW,347,6.0,6.0,23,0.00,CLR,,0.00,WeatherDisplay:10.37,2013-01-14 20:16:00,
2013-01-14 12:21:00,52.1,16.4,30.35,NW,319,6.9,6.9,24,0.00,CLR,,0.00,WeatherDisplay:10.37,2013-01-14 20:21:00,
2013-01-14 12:26:00,52.4,16.6,30.35,North,4,10.4,10.4,24,0.00,CLR,,0.00,WeatherDisplay:10.37,2013-01-14 20:26:00,
2013-01-14 12:31:00,52.4,16.6,30.35,North,349,8.1,8.1,24,0.00,CLR,,0.00,WeatherDisplay:10.37,2013-01-14 20:31:00,
2013-01-14 12:37:00,52.6,16.8,30.35,WNW,301,6.9,6.9,24,0.00,CLR,,0.00,WeatherDisplay:10.37,2013-01-14 20:37:00,
2013-01-14 12:42:00,52.8,16.9,30.35,NW,311,7.0,7.0,24,0.00,CLR,,0.00,WeatherDisplay:10.37,2013-01-14 20:42:00,
2013-01-14 12:47:00,53.2,18.2,30.35,ENE,75,8.0,8.0,25,0.00,CLR,,0.00,WeatherDisplay:10.37,2013-01-14 20:47:00,
2013-01-14 12:52:00,53.5,15.5,30.35,NNW,338,5.8,5.8,22,0.00,CLR,,0.00,WeatherDisplay:10.37,2013-01-14 20:52:00,
2013-01-14 12:58:00,53.6,16.6,30.35,NNE,15,4.0,4.0,23,0.00,CLR,,0.00,WeatherDisplay:10.37,2013-01-14 20:58:00,
2013-01-14 13:03:00,53.9,17.9,30.34,North,352,9.0,9.0,24,0.00,CLR,,0.00,WeatherDisplay:10.37,2013-01-14 21:03:00,
2013-01-14 13:08:00,53.9,15.9,30.34,WNW,297,4.6,4.6,22,0.00,CLR,,0.00,WeatherDisplay:10.37,2013-01-14 21:08:00,
2013-01-14 13:13:00,54.1,16.0,30.34,NNW,342,6.0,6.0,22,0.00,CLR,,0.00,WeatherDisplay:10.37,2013-01-14 21:13:00,
2013-01-14 13:18:00,54.4,16.3,30.34,NNW,336,4.6,4.6,22,0.00,CLR,,0.00,WeatherDisplay:10.37,2013-01-14 21:18:00,
2013-01-14 13:23:00,54.6,16.5,30.34,NNE,12,5.8,5.8,22,0.00,CLR,,0.00,WeatherDisplay:10.37,2013-01-14 21:23:00,
2013-01-14 13:28:00,54.7,17.6,30.34,East,94,3.5,3.5,23,0.00,CLR,,0.00,WeatherDisplay:10.37,2013-01-14 21:28:00,
2013-01-14 13:34:00,55.1,15.8,30.35,NNE,23,6.9,6.9,21,0.00,CLR,,0.00,WeatherDisplay:10.37,2013-01-14 21:34:00,
2013-01-14 13:39:00,55.0,16.8,30.34,NE,54,3.5,3.5,22,0.00,CLR,,0.00,WeatherDisplay:10.37,2013-01-14 21:39:00,
2013-01-14 13:44:00,55.3,18.1,30.34,NNE,17,6.0,6.0,23,0.00,CLR,,0.00,WeatherDisplay:10.37,2013-01-14 21:44:00,
2013-01-14 13:49:00,55.4,16.1,30.34,NNE,13,5.8,5.8,21,0.00,CLR,,0.00,WeatherDisplay:10.37,2013-01-14 21:49:00,
2013-01-14 13:54:00,55.6,17.3,30.34,NE,49,8.1,8.1,22,0.00,CLR,,0.00,WeatherDisplay:10.37,2013-01-14 21:54:00,
2013-01-14 13:59:00,55.9,17.6,30.34,NNW,338,11.5,11.5,22,0.00,CLR,,0.00,WeatherDisplay:10.37,2013-01-14 21:59:00,
2013-01-14 14:04:00,55.9,15.3,30.34,NNW,345,6.9,6.9,20,0.00,CLR,,0.00,WeatherDisplay:10.37,2013-01-14 22:04:00,
2013-01-14 14:09:00,56.1,16.6,30.34,NNW,333,2.3,2.3,21,0.00,CLR,,0.00,WeatherDisplay:10.37,2013-01-14 22:09:00,
2013-01-14 14:14:00,56.5,14.7,30.34,NW,318,6.9,6.9,19,0.00,CLR,,0.00,WeatherDisplay:10.37,2013-01-14 22:14:00,
2013-01-14 14:19:00,56.7,16.0,30.34,North,358,6.0,6.0,20,0.00,CLR,,0.00,WeatherDisplay:10.37,2013-01-14 22:19:00,
2013-01-14 14:24:00,56.8,14.9,30.34,WNW,302,8.0,8.0,19,0.00,CLR,,0.00,WeatherDisplay:10.37,2013-01-14 22:24:00,
2013-01-14 14:29:00,56.8,16.1,30.34,NW,325,6.9,6.9,20,0.00,CLR,,0.00,WeatherDisplay:10.37,2013-01-14 22:29:00,
2013-01-14 14:35:00,56.9,16.2,30.34,North,5,10.4,10.4,20,0.00,CLR,,0.00,WeatherDisplay:10.37,2013-01-14 22:35:00,
2013-01-14 14:40:00,56.9,16.2,30.35,NNW,334,3.5,3.5,20,0.00,CLR,,0.00,WeatherDisplay:10.37,2013-01-14 22:40:00,
2013-01-14 14:45:00,57.0,17.4,30.35,North,354,5.8,5.8,21,0.00,CLR,,0.00,WeatherDisplay:10.37,2013-01-14 22:45:00,
2013-01-14 14:50:00,57.1,16.3,30.35,North,349,2.3,2.3,20,0.00,CLR,,0.00,WeatherDisplay:10.37,2013-01-14 22:50:00,
2013-01-14 14:55:00,57.2,16.4,30.35,NW,305,2.3,2.3,20,0.00,CLR,,0.00,WeatherDisplay:10.37,2013-01-14 22:55:00,
2013-01-14 15:00:00,57.3,17.6,30.35,NNE,16,6.9,6.9,21,0.00,CLR,,0.00,WeatherDisplay:10.37,2013-01-14 23:00:00,
2013-01-14 15:06:00,57.3,15.3,30.36,North,354,5.0,5.0,19,0.00,CLR,,0.00,WeatherDisplay:10.37,2013-01-14 23:06:00,
2013-01-14 15:11:00,57.3,18.7,30.36,North,359,3.5,3.5,22,0.00,CLR,,0.00,WeatherDisplay:10.37,2013-01-14 23:11:00,
2013-01-14 15:16:00,57.3,16.5,30.36,NNE,14,3.5,3.5,20,0.00,CLR,,0.00,WeatherDisplay:10.37,2013-01-14 23:16:00,
2013-01-14 15:21:00,57.4,18.8,30.36,NE,41,5.8,5.8,22,0.00,CLR,,0.00,WeatherDisplay:10.37,2013-01-14 23:21:00,
2013-01-14 15:26:00,57.6,22.0,30.36,SE,146,3.5,3.5,25,0.00,CLR,,0.00,WeatherDisplay:10.37,2013-01-14 23:26:00,
2013-01-14 15:31:00,57.3,23.6,30.36,ESE,119,2.0,2.0,27,0.00,CLR,,0.00,WeatherDisplay:10.37,2013-01-14 23:31:00,
2013-01-14 15:36:00,56.9,24.9,30.36,SSE,160,1.1,1.1,29,0.00,CLR,,0.00,WeatherDisplay:10.37,2013-01-14 23:36:00,
2013-01-14 15:41:00,56.8,23.1,30.36,SSE,156,3.5,3.5,27,0.00,CLR,,0.00,WeatherDisplay:10.37,2013-01-14 23:41:00,
2013-01-14 15:46:00,56.3,23.6,30.36,SSE,167,6.9,6.9,28,0.00,CLR,,0.00,WeatherDisplay:10.37,2013-01-14 23:46:00,
2013-01-14 15:52:00,55.8,24.0,30.36,SSE,154,3.5,3.5,29,0.00,CLR,,0.00,WeatherDisplay:10.37,2013-01-14 23:52:00,
2013-01-14 15:57:00,55.9,24.9,30.36,South,176,5.8,5.8,30,0.00,CLR,,0.00,WeatherDisplay:10.37,2013-01-14 23:57:00,
2013-01-14 16:02:00,55.5,26.1,30.36,SSE,160,4.6,4.6,32,0.00,CLR,,0.00,WeatherDisplay:10.37,2013-01-15 00:02:00,
2013-01-14 16:08:00,55.3,25.9,30.36,South,169,6.9,6.9,32,0.00,CLR,,0.00,WeatherDisplay:10.37,2013-01-15 00:08:00,
2013-01-14 16:13:00,55.2,25.8,30.36,SSE,155,3.5,3.5,32,0.00,CLR,,0.00,WeatherDisplay:10.37,2013-01-15 00:13:00,
2013-01-14 16:18:00,54.9,25.6,30.36,SSE,165,7.0,7.0,32,0.00,CLR,,0.00,WeatherDisplay:10.37,2013-01-15 00:18:00,
2013-01-14 16:23:00,54.5,26.0,30.36,SE,124,4.6,4.6,33,0.00,CLR,,0.00,WeatherDisplay:10.37,2013-01-15 00:23:00,
2013-01-14 16:28:00,53.8,26.1,30.36,SSE,158,3.5,3.5,34,0.00,CLR,,0.00,WeatherDisplay:10.37,2013-01-15 00:28:00,
2013-01-14 16:33:00,53.2,26.9,30.36,ESE,122,4.6,4.6,36,0.00,CLR,,0.00,WeatherDisplay:10.37,2013-01-15 00:33:00,
2013-01-14 16:38:00,52.5,26.3,30.36,SSE,161,3.5,3.5,36,0.00,CLR,,0.00,WeatherDisplay:10.37,2013-01-15 00:38:00,
2013-01-14 16:43:00,51.8,26.3,30.36,SSE,153,3.5,3.5,37,0.00,CLR,,0.00,WeatherDisplay:10.37,2013-01-15 00:43:00,
2013-01-14 16:49:00,51.2,26.4,30.37,SSE,160,4.6,4.6,38,0.00,CLR,,0.00,WeatherDisplay:10.37,2013-01-15 00:49:00,
2013-01-14 16:54:00,50.8,26.7,30.37,South,189,3.5,3.5,39,0.00,CLR,,0.00,WeatherDisplay:10.37,2013-01-15 00:54:00,
2013-01-14 16:59:00,50.4,27.0,30.37,SSE,163,4.0,4.0,40,0.00,CLR,,0.00,WeatherDisplay:10.37,2013-01-15 00:59:00,
2013-01-14 17:04:00,50.0,26.6,30.37,SSW,201,3.5,3.5,40,0.00,CLR,,0.00,WeatherDisplay:10.37,2013-01-15 01:04:00,
2013-01-14 17:09:00,49.7,26.9,30.37,South,177,3.5,3.5,41,0.00,CLR,,0.00,WeatherDisplay:10.37,2013-01-15 01:09:00,
2013-01-14 17:14:00,49.4,27.8,30.37,SW,214,2.3,2.3,43,0.00,CLR,,0.00,WeatherDisplay:10.37,2013-01-15 01:14:00,
2013-01-14 17:19:00,48.8,27.8,30.36,WSW,250,3.5,3.5,44,0.00,CLR,,0.00,WeatherDisplay:10.37,2013-01-15 01:19:00,
2013-01-14 17:25:00,48.3,27.9,30.36,SW,221,2.3,2.3,45,0.00,CLR,,0.00,WeatherDisplay:10.37,2013-01-15 01:25:00,
2013-01-14 17:30:00,47.9,27.6,30.37,SW,222,1.1,1.1,45,0.00,CLR,,0.00,WeatherDisplay:10.37,2013-01-15 01:30:00,
2013-01-14 17:35:00,47.5,27.7,30.37,SSE,165,1.1,1.1,46,0.00,CLR,,0.00,WeatherDisplay:10.37,2013-01-15 01:35:00,
2013-01-14 17:40:00,47.1,27.4,30.37,South,174,1.1,0.0,46,0.00,CLR,,0.00,WeatherDisplay:10.37,2013-01-15 01:40:00,
2013-01-14 17:45:00,46.8,27.6,30.37,SSE,166,2.3,2.3,47,0.00,CLR,,0.00,WeatherDisplay:10.37,2013-01-15 01:45:00,
2013-01-14 17:50:00,46.4,27.8,30.37,SSE,166,0.0,0.0,48,0.00,CLR,,0.00,WeatherDisplay:10.37,2013-01-15 01:50:00,
2013-01-14 17:56:00,46.0,27.9,30.37,SSE,166,0.0,0.0,49,0.00,CLR,,0.00,WeatherDisplay:10.37,2013-01-15 01:56:00,
2013-01-14 18:01:00,45.5,27.9,30.37,SSE,166,0.0,0.0,50,0.00,CLR,,0.00,WeatherDisplay:10.37,2013-01-15 02:01:00,
2013-01-14 18:06:00,45.0,27.9,30.37,SSE,166,0.0,0.0,51,0.00,CLR,,0.00,WeatherDisplay:10.37,2013-01-15 02:06:00,
2013-01-14 18:11:00,44.8,27.8,30.37,SSE,166,0.0,0.0,51,0.00,CLR,,0.00,WeatherDisplay:10.37,2013-01-15 02:11:00,
2013-01-14 18:17:00,44.5,28.0,30.37,SSE,168,0.0,0.0,52,0.00,CLR,,0.00,WeatherDisplay:10.37,2013-01-15 02:17:00,
2013-01-14 18:22:00,44.4,28.3,30.37,SSE,167,1.0,1.0,53,0.00,CLR,,0.00,WeatherDisplay:10.37,2013-01-15 02:22:00,
2013-01-14 18:27:00,43.9,28.8,30.37,SSE,167,0.0,0.0,55,0.00,CLR,,0.00,WeatherDisplay:10.37,2013-01-15 02:27:00,
2013-01-14 18:32:00,43.3,28.6,30.37,SSE,167,0.0,0.0,56,0.00,CLR,,0.00,WeatherDisplay:10.37,2013-01-15 02:32:00,
2013-01-14 18:37:00,42.9,28.7,30.37,SSE,167,0.0,0.0,57,0.00,CLR,,0.00,WeatherDisplay:10.37,2013-01-15 02:37:00,
2013-01-14 18:43:00,42.5,29.2,30.37,South,188,1.1,1.1,59,0.00,CLR,,0.00,WeatherDisplay:10.37,2013-01-15 02:43:00,
2013-01-14 18:48:00,42.2,28.9,30.37,South,189,0.0,0.0,59,0.00,CLR,,0.00,WeatherDisplay:10.37,2013-01-15 02:48:00,
2013-01-14 18:53:00,41.7,29.2,30.38,South,188,0.0,0.0,61,0.00,CLR,,0.00,WeatherDisplay:10.37,2013-01-15 02:53:00,
2013-01-14 18:58:00,41.4,29.3,30.38,South,188,0.0,0.0,62,0.00,CLR,,0.00,WeatherDisplay:10.37,2013-01-15 02:58:00,
2013-01-14 19:03:00,41.0,29.4,30.38,South,188,0.0,0.0,63,0.00,CLR,,0.00,WeatherDisplay:10.37,2013-01-15 03:03:00,
2013-01-14 19:08:00,40.8,29.6,30.38,WSW,249,1.1,1.1,64,0.00,CLR,,0.00,WeatherDisplay:10.37,2013-01-15 03:08:00,
2013-01-14 19:13:00,40.4,29.2,30.38,WSW,239,1.1,1.1,64,0.00,CLR,,0.00,WeatherDisplay:10.37,2013-01-15 03:13:00,
2013-01-14 19:18:00,40.3,28.7,30.38,SW,236,0.0,0.0,63,0.00,CLR,,0.00,WeatherDisplay:10.37,2013-01-15 03:18:00,
2013-01-14 19:24:00,40.0,28.8,30.38,SW,236,0.0,0.0,64,0.00,CLR,,0.00,WeatherDisplay:10.37,2013-01-15 03:24:00,
2013-01-14 19:29:00,38.9,28.1,30.38,ESE,117,0.0,0.0,65,0.00,CLR,,0.00,WeatherDisplay:10.37,2013-01-15 03:29:00,
2013-01-14 19:34:00,38.2,28.2,30.38,ESE,117,1.1,1.1,67,0.00,CLR,,0.00,WeatherDisplay:10.37,2013-01-15 03:34:00,
2013-01-14 19:39:00,37.9,29.0,30.38,East,85,1.1,1.1,70,0.00,CLR,,0.00,WeatherDisplay:10.37,2013-01-15 03:39:00,
2013-01-14 19:45:00,38.3,28.7,30.38,ENE,77,2.3,2.3,68,0.00,CLR,,0.00,WeatherDisplay:10.37,2013-01-15 03:45:00,
2013-01-14 19:50:00,38.5,28.5,30.38,ENE,77,1.1,0.0,67,0.00,CLR,,0.00,WeatherDisplay:10.37,2013-01-15 03:50:00,
2013-01-14 19:55:00,38.5,28.9,30.38,ENE,76,0.0,0.0,68,0.00,CLR,,0.00,WeatherDisplay:10.37,2013-01-15 03:55:00,
2013-01-14 20:00:00,38.3,28.7,30.38,ENE,76,0.0,0.0,68,0.00,CLR,,0.00,WeatherDisplay:10.37,2013-01-15 04:00:00,
2013-01-14 20:05:00,38.2,28.9,30.39,ENE,77,0.0,0.0,69,0.00,CLR,,0.00,WeatherDisplay:10.37,2013-01-15 04:05:00,
2013-01-14 20:10:00,38.1,28.8,30.39,ENE,76,0.0,0.0,69,0.00,CLR,,0.00,WeatherDisplay:10.37,2013-01-15 04:10:00,
2013-01-14 20:16:00,38.0,29.1,30.39,ENE,78,1.1,1.1,70,0.00,CLR,,0.00,WeatherDisplay:10.37,2013-01-15 04:16:00,
2013-01-14 20:21:00,37.9,29.0,30.39,WSW,248,1.1,0.0,70,0.00,CLR,,0.00,WeatherDisplay:10.37,2013-01-15 04:21:00,
2013-01-14 20:26:00,37.8,28.9,30.39,WSW,244,0.0,0.0,70,0.00,CLR,,0.00,WeatherDisplay:10.37,2013-01-15 04:26:00,
2013-01-14 20:31:00,37.2,28.3,30.39,WSW,245,0.0,0.0,70,0.00,CLR,,0.00,WeatherDisplay:10.37,2013-01-15 04:31:00,
2013-01-14 20:36:00,36.3,28.1,30.39,WSW,245,0.0,0.0,72,0.00,CLR,,0.00,WeatherDisplay:10.37,2013-01-15 04:36:00,
2013-01-14 20:41:00,35.9,28.4,30.38,ENE,63,2.3,2.3,74,0.00,CLR,,0.00,WeatherDisplay:10.37,2013-01-15 04:41:00,
2013-01-14 20:46:00,35.6,28.8,30.39,ENE,63,1.1,1.1,76,0.00,CLR,,0.00,WeatherDisplay:10.37,2013-01-15 04:46:00,
2013-01-14 20:51:00,35.1,28.6,30.39,ENE,63,0.0,0.0,77,0.00,CLR,,0.00,WeatherDisplay:10.37,2013-01-15 04:51:00,
2013-01-14 20:56:00,35.3,29.1,30.38,NE,37,1.1,1.1,78,0.00,CLR,,0.00,WeatherDisplay:10.37,2013-01-15 04:56:00,
2013-01-14 21:00:00,36.0,29.8,30.38,NNW,330,1.1,0.0,78,0.00,CLR,,0.00,WeatherDisplay:10.37,2013-01-15 05:00:00,
2013-01-14 21:02:00,36.1,29.3,30.38,NNW,330,0.0,0.0,76,0.00,CLR,,0.00,WeatherDisplay:10.37,2013-01-15 05:02:00,
2013-01-14 21:07:00,36.0,28.8,30.38,NNW,330,0.0,0.0,75,0.00,CLR,,0.00,WeatherDisplay:10.37,2013-01-15 05:07:00,
2013-01-14 21:12:00,35.9,28.7,30.39,NNW,327,0.0,0.0,75,0.00,CLR,,0.00,WeatherDisplay:10.37,2013-01-15 05:12:00,
2013-01-14 21:17:00,35.7,28.9,30.39,NNW,327,0.0,0.0,76,0.00,CLR,,0.00,WeatherDisplay:10.37,2013-01-15 05:17:00,
2013-01-14 21:22:00,35.7,28.9,30.39,NW,326,0.0,0.0,76,0.00,CLR,,0.00,WeatherDisplay:10.37,2013-01-15 05:22:00,
2013-01-14 21:27:00,35.6,28.8,30.39,NNW,328,0.0,0.0,76,0.00,CLR,,0.00,WeatherDisplay:10.37,2013-01-15 05:27:00,
2013-01-14 21:32:00,35.2,28.4,30.39,NNW,327,0.0,0.0,76,0.00,CLR,,0.00,WeatherDisplay:10.37,2013-01-15 05:32:00,
2013-01-14 21:37:00,34.7,28.2,30.39,North,351,1.1,1.1,77,0.00,CLR,,0.00,WeatherDisplay:10.37,2013-01-15 05:37:00,
2013-01-14 21:43:00,34.4,28.2,30.39,North,355,1.1,1.1,78,0.00,CLR,,0.00,WeatherDisplay:10.37,2013-01-15 05:43:00,
2013-01-14 21:48:00,33.9,28.1,30.39,ENE,69,1.1,1.1,79,0.00,CLR,,0.00,WeatherDisplay:10.37,2013-01-15 05:48:00,
2013-01-14 21:53:00,33.9,28.1,30.39,ENE,69,1.1,1.1,79,0.00,CLR,,0.00,WeatherDisplay:10.37,2013-01-15 05:53:00,
2013-01-14 21:58:00,33.8,28.3,30.39,ENE,70,2.3,2.3,80,0.00,CLR,,0.00,WeatherDisplay:10.37,2013-01-15 05:58:00,
2013-01-14 22:03:00,34.3,28.8,30.39,ENE,69,0.0,0.1,80,0.00,CLR,,0.00,WeatherDisplay:10.37,2013-01-15 06:03:00,
2013-01-14 22:08:00,34.2,28.4,30.39,NNE,27,2.3,2.3,79,0.00,CLR,,0.00,WeatherDisplay:10.37,2013-01-15 06:08:00,
2013-01-14 22:13:00,33.7,28.2,30.39,NNE,27,1.0,1.0,80,0.00,CLR,,0.00,WeatherDisplay:10.37,2013-01-15 06:13:00,
2013-01-14 22:18:00,33.3,28.1,30.39,NNE,27,0.0,0.0,81,0.00,CLR,,0.00,WeatherDisplay:10.37,2013-01-15 06:18:00,
2013-01-14 22:23:00,33.2,28.0,30.39,NNE,27,0.0,0.0,81,0.00,CLR,,0.00,WeatherDisplay:10.37,2013-01-15 06:23:00,
2013-01-14 22:28:00,33.0,27.8,30.39,NNE,27,0.0,0.0,81,0.00,CLR,,0.00,WeatherDisplay:10.37,2013-01-15 06:28:00,
2013-01-14 22:33:00,33.6,28.7,30.40,NNE,27,0.0,0.0,82,0.00,CLR,,0.00,WeatherDisplay:10.37,2013-01-15 06:33:00,
2013-01-14 22:38:00,33.8,28.3,30.40,NNE,27,0.0,0.0,80,0.00,CLR,,0.00,WeatherDisplay:10.37,2013-01-15 06:38:00,
2013-01-14 22:44:00,33.8,28.3,30.40,NNE,27,0.0,0.0,80,0.00,CLR,,0.00,WeatherDisplay:10.37,2013-01-15 06:44:00,
2013-01-14 22:49:00,34.0,28.5,30.40,NNE,27,0.0,0.0,80,0.00,CLR,,0.00,WeatherDisplay:10.37,2013-01-15 06:49:00,
2013-01-14 22:54:00,33.7,28.2,30.40,NNE,27,0.0,0.0,80,0.00,CLR,,0.00,WeatherDisplay:10.37,2013-01-15 06:54:00,
2013-01-14 22:59:00,34.1,29.2,30.40,NNE,27,1.1,1.1,82,0.00,CLR,,0.00,WeatherDisplay:10.37,2013-01-15 06:59:00,
2013-01-14 23:04:00,34.1,28.6,30.40,NNE,27,1.1,0.0,80,0.00,CLR,,0.00,WeatherDisplay:10.37,2013-01-15 07:04:00,
2013-01-14 23:09:00,33.5,28.0,30.40,North,353,1.1,0.0,80,0.00,CLR,,0.00,WeatherDisplay:10.37,2013-01-15 07:09:00,
2013-01-14 23:14:00,33.1,28.5,30.40,NNW,345,1.1,1.1,83,0.00,CLR,,0.00,WeatherDisplay:10.37,2013-01-15 07:14:00,
2013-01-14 23:20:00,33.7,28.5,30.40,NNW,344,0.0,0.0,81,0.00,CLR,,0.00,WeatherDisplay:10.37,2013-01-15 07:20:00,
2013-01-14 23:25:00,33.4,28.2,30.40,NNW,345,0.0,0.0,81,0.00,CLR,,0.00,WeatherDisplay:10.37,2013-01-15 07:25:00,
2013-01-14 23:30:00,33.3,28.1,30.40,NNW,344,0.0,0.0,81,0.00,CLR,,0.00,WeatherDisplay:10.37,2013-01-15 07:30:00,
2013-01-14 23:35:00,33.0,28.4,30.40,NNW,345,0.0,0.0,83,0.00,CLR,,0.00,WeatherDisplay:10.37,2013-01-15 07:35:00,
2013-01-14 23:40:00,32.9,28.0,30.41,NNW,345,0.0,0.0,82,0.00,CLR,,0.00,WeatherDisplay:10.37,2013-01-15 07:40:00,
2013-01-14 23:45:00,32.7,28.1,30.41,NNW,345,0.0,0.0,83,0.00,CLR,,0.00,WeatherDisplay:10.37,2013-01-15 07:45:00,
2013-01-14 23:50:00,32.3,27.4,30.41,NNW,345,0.0,0.0,82,0.00,CLR,,0.00,WeatherDisplay:10.37,2013-01-15 07:50:00,
2013-01-14 23:55:00,31.4,26.5,30.42,North,8,0.0,0.0,82,0.00,CLR,,0.00,WeatherDisplay:10.37,2013-01-15 07:55:00,